This demonstration page uses our WeatherBlox Daily Observations layout. Learn more.

39.08367, -84.50855

Hourly Observations for October 25, 2019

Temp ( °F °C ) Dew Point ( °F °C ) Humidity (%) Winds ( mph kmh ) Pressure ( in mb ) Visibility ( mi km ) Precip ( " mm )
12:53 am 00:53 Clear 50 10 47 8.3 89 89 NE 3 6 30.28 1025 10 16.0934 0 0
1:53 am 01:53 Clear 50 10 47 8.3 89 89 Calm 30.29 1026 10 16.0934 0 0
2:53 am 02:53 Clear 50 10 47 8.3 89 89 E 3 6 30.27 1025 10 16.0934 0 0
3:53 am 03:53 Clear 49 9.4 47 8.3 93 93 NW 3 6 30.27 1025 10 16.0934 0 0
4:53 am 04:53 Cloudy 51 10.6 47 8.3 86 86 N 3 6 30.28 1026 10 16.0934 0 0
5:53 am 05:53 Cloudy 51 10.6 47 8.3 86 86 ENE 3 6 30.29 1026 10 16.0934 0 0
6:53 am 06:53 Mostly Cloudy 51 10.6 46 7.8 83 83 NNE 3 6 30.29 1026 10 16.0934 0 0
7:53 am 07:53 Partly Cloudy 51 10.6 46 7.8 83 83 NE 3 6 30.29 1026 10 16.0934 0 0
8:53 am 08:53 Sunny 51 10.6 47 8.3 86 86 Calm 30.31 1026 10 16.0934 0 0
9:53 am 09:53 Sunny 53 11.7 47 8.3 80 80 ENE 5 7 30.3 1026 10 16.0934 0 0
10:53 am 10:53 Cloudy 54 12.2 47 8.3 77 77 NNE 3 6 30.29 1026 10 16.0934 0 0
11:53 am 11:53 Mostly Cloudy 55 12.8 47 8.3 74 74 Calm 30.29 1026 10 16.0934 0 0
12:53 pm 12:53 Mostly Cloudy 57 13.9 48 8.9 72 72 Calm 30.27 1025 10 16.0934 0 0
1:53 pm 13:53 Mostly Cloudy 58 14.4 48 8.9 70 70 Calm 30.26 1025 10 16.0934 0 0
2:53 pm 14:53 Mostly Cloudy 60 15.6 48 8.9 65 65 Calm 30.24 1024 10 16.0934 0 0
3:53 pm 15:53 Mostly Sunny 60 15.6 48 8.9 65 65 Calm 30.21 1023 10 16.0934 0 0
4:53 pm 16:53 Cloudy 61 16.1 48 8.9 63 63 NE 5 7 30.22 1023 10 16.0934 0 0
5:53 pm 17:53 Cloudy 60 15.6 47 8.3 62 62 Calm 30.21 1023 10 16.0934 0 0
6:53 pm 18:53 Mostly Clear 56 13.3 50 10 81 81 Calm 30.23 1024 10 16.0934 0 0
7:53 pm 19:53 Clear 54 12.2 50 10 87 87 Calm 30.23 1024 10 16.0934 0 0
8:53 pm 20:53 Clear 53 11.7 50 10 89 89 ENE 5 7 30.22 1023 10 16.0934 0 0
9:53 pm 21:53 Clear 52 11.1 50 10 93 93 E 5 7 30.21 1023 10 16.0934 0 0
10:53 pm 22:53 Clear 52 11.1 50 10 93 93 NNE 5 7 30.22 1023 10 16.0934 0 0
11:53 pm 23:53 Clear 52 11.1 49 9.4 89 89 E 5 7 30.2 1023 10 16.0934 0 0

Powered by AerisWeather